Погода Советская Гавань

Погода Советская Гавань : погода сейчас, прогноз погоды и архив. Всё, что Вы хотите узнать о погоде Советская Гавань!

Поиск расширенной информации на нашем сайте:

Другие новости

Новости СМИ2

Главная страница сайта

Новости сайта

03.07.2017

Напоминаем, что на нашем специализированном сайте Метеоцентр.Азия вы можете получить высокодетализированные автоматические прогнозы погоды по пунктам России, СНГ и мира в авиационном формате (включающие направление и скорость ветра, видимость, явления погоды, количество и форму облачности, нижнюю и верхнюю границу облачности).


Погода Советская Гавань - сегодня

Время (UTC), дата Ветер
(°,м/с) 
Видим.   Явления Облачность Т
(°С)
Тd
(°С)
f(%) Тe
(°С)
Pmin
(гПа)
dP
(гПа)
Po
(мм)
O2
(г/м3)
Тmin Tmax R s Состояние
почвы
06 15.04.18 050 (СВ) 20000 м    10/6 600 м средняя, верхняя 
[St|Ac trans|Ci fib]
+0.6 -4.1 71 -2  1008.5  -1.4  754  304           
12 15.04.18 тихо ()   40000 м    4/0 верхняя 
[Ci fib]
-1.2 -6.5 67 -1  1008.2  0.4  754  306           
15 15.04.18 230 (ЮЗ) 50000 м    10/0 верхняя 
[Ci fib]
-3.2 -6.6 77 -4  1007.5  -0.7  754  308           
18 15.04.18 230 (ЮЗ) 50000 м    6/0 верхняя 
[Ci fib]
-3.9 -7.1 78 -7  1006.4  -1.1  753  308           
21 15.04.18 230 (ЮЗ) 20000 м    3/0 верхняя 
[Ci fib]
-3.7 -7.3 76 -5  1007  0.6  753  308  -4.5      мокрый или
старый снег
50-90% 
00 16.04.18 200 (Ю) 20000 м    ясно 
+4.8 -5.9 46 +4  1007.1  0.2  753  299           
03 16.04.18 тихо ()   20000 м    1/1 600 м 
[Cu hum]
+9.7 -5.7 33 +10  1005.4  -1.7  752  293           
12 16.04.18 230 (ЮЗ) 40000 м    ясно 
+5.7 -5.3 45 +4  1006.7  2.3  753  298           
15 16.04.18 230 (ЮЗ) 40000 м    ясно 
+2.6 -5.2 56 +2  1007.1  0.4  753  301           
18 16.04.18 230 (ЮЗ) 50000 м    ясно 
+6.5 -5.9 41 +4  1007.1  753  297           
00 17.04.18 250 (З) 20000 м    10/0 верхняя 
[Cc]
+13.6 -5.3 26 +13  1008.8  755  290           
03 17.04.18 250 (З) 20000 м    10/0 верхняя 
[Cc]
+17.9 -6.9 18 +19  1007.9  -0.8  754  286           
12 17.04.18 230 (ЮЗ) 40000 м    ясно 
+8.2 -4.1 42 +8  1005.9  1.6  753  295           
15 17.04.18 тихо ()   40000 м    ясно 
+2.5 -1.5 75 +3  1006.9  0.9  753  301           
18 17.04.18 тихо ()   30000 м    ясно 
+3.3 -2.7 65 +3  1006.5  -0.4  753  300           
21 17.04.18 270 (З) 10 км    10/10 600 м 
[Sc]
+5.1 -2 60 +5  1006.3  -0.1  753  298  +2      мокрый или
старый снег
10-40% 
00 18.04.18 020 (С) 20000 м    10/0 средняя 
[As trans]
+6.5 -0.3 62 +6  1006.5  0.1  753  296           
03 18.04.18 020 (С) 10 км    10/6 600 м кучево-дожд., средняя, верхняя 
[Cb cap|Ac As|Ci fib]
+6 +0.7 69 +6  1006.3  -0.2  753  297           
06 18.04.18 050 (СВ) 10 км  слаб. ливневой дождь  10/8 600 м кучево-дожд., средняя 
[Cb cap|Ac As]
+3.1 +0.9 85 +3  1007  0.6  753  300           
12 18.04.18 140 (ЮВ) 29  20000 м  в посл. час ливневой дождь  10/10 1500 м кучево-дожд. 
[Cb cap]
+1.2 +0.8 97 -7  1010.2  1.9  756  303           
15 18.04.18 тихо ()   3500 м  дымка  10/10 300 м кучево-дожд. 
[Cb cap]
+1.1 +0.3 94 +1  1010.3  0.1  756  303           
18 18.04.18 тихо ()   3900 м  дымка  10/10 300 м кучево-дожд. 
[Cb cap]
+0.9 +0.3 96 +1  1010.9  0.6  756  304           
00 19.04.18 тихо ()   10 км    10/10 300 м 
[St]
+1.9 +0.7 92 +2  1012.4  0.9  757  303           
03 19.04.18 360 (С) 20000 м    10/8 600 м средняя 
[Sc|Ac As]
+3.7 +1.3 84 +3  1012.3  -0.1  757  301           
06 19.04.18 070 (В) 20000 м    10/6 600 м средняя 
[Sc|Ac As]
+4.1 +1.3 82 +4  1010.9  -1.4  756  300           
Время (UTC), дата Ветер
(°,м/с) 
Видим.   Явления Облачность Т
(°С)
Тd
(°С)
f(%) Тe
(°С)
Pmin
(гПа)
dP
(гПа)
Po
(мм)
O2
(г/м3)
Тmin Tmax R s Состояние
почвы

Для получения пояснительной информации подведите курсор к названию столбца.

ПОГОДА Советская Гавань - архив

Всё, что Вы хотите узнать о погоде Советская Гавань - удобно и подробно!

Выберите нужную дату (начиная с 1 января 2015* года) и нажмите кнопку "Найти".
Будут отображены архивные сводки погоды по пункту Советская Гавань, начиная с указанной даты.


Отображать данные в формате CSV (для использования в таблицах Excel)


Внимание! Наш архив погоды предназначен исключительно для личного некоммерческого использования в познавательных целях. Если Вам необходимы официальные справки о состоянии погоды (для производственных, юридических, коммерческих и т.п. целей), обращайтесь в органы Росгидромета.

*Примечание: данная дата относится к архиву по метеостанциям СССР (Россия, СНГ, Балтия).
Архив по метеостанциям Зарубежной Европы и Азии (кроме Китая) хранится 10 дней, по другим регионам земного шара (Китай, Африка, Америка, Австралия, Океания) - 1 день.

Советская Гавань - район местоположения метеостанции


Название, широта, долгота, высота метеостанции:
Советская Гавань 49°ш. 140.3°д. 22 м над ур. моря [Российская Федерация]

Дополнительная информация

В oтличие oт бoльшинства пoгoдных сайтoв мы публикуем пoдрoбную метеoинфoрмацию в детальнoм прoфессиoнальнoм фoрмате.

Характеристики температуры и влажнoсти вoздуха измеряются на высoте 2 м в тени вдали oт зданий и деревьев.
Скoрoсть ветра измеряется на высoте 10 м (на урoвне рoста челoвека скoрoсть ветра ниже в 1.5-2 раза). Если метеoстанция нахoдится в гoрoде или в лесу, тo скoрoсть ветра занижена на 2-4 м/с пo сравнению с oткрытым местoм. Скoрoсть ветра над акватoриями крупных рек и oзёр, а также на вершинах хoлмoв на 2-5 м/с выше, чем в oбычных услoвиях.
Атмoсфернoе давление в разных тoчках местнoсти мoжет значительнo oтличаться oт давления на метеoстанции, в зависимoсти oт услoвий рельефа (при пoдъёме на 10 м давление пoнижается примернo на 1 мм рт.ст.).